Location: *
(50.9167°S, 179.4000°W)
Time: 20:04:13
(UTC+00:00)

CZ-2C R/B - Pass Details

Date: 03 March 2024
Orbit: 702 x 906 km, 98.2° (Epoch: 16 April)

Event Time Altitude Azimuth Distance (km) Brightness Sun altitude
Exits shadow 13:22:12 56° 178° (S) 917 3.5 -30.5°
Drops below altitude 10° 13:26:23 10° 192° (SSW) 2,381 6.2 -30.2°
Sets 13:28:47 0° 193° (SSW) 3,350 7.1 -30.1°
